Flag for Gambia Weather past 2 weeks in Banjul, Gambia

Now
75 °F

Clear.


Feels Like: 78 °F
Forecast: N/A
Wind: 5 mph from North

Location: Banjul / Yundum

Current Time: Mar 29, 2015 at 8:31:11 PM

Latest Report: Mar 29, 2015 at 8:00 PM


Visibility: 10 mi

Pressure: 29.86 "Hg

Humidity: 50%

Dew point: 55 °F

Location of BanjulLocation

Historic Weather in Banjul — Graph

°F

Banjul temperature yesterday

Maximum temperature yesterday: 104 °F (at 3:00 PM)
Minimum temperature yesterday: 68 °F (at 7:00 AM)
Average temperature yesterday: 81 °F

Past Weeks' High & Low Weather Summary

 TemperatureHumidityPressure
High104 °F (Mar 28, 3:00 PM)88% (Mar 18, 3:00 AM)29.98 "Hg (Mar 18, 3:00 AM)
Low63 °F (Mar 24, 5:00 AM)10% (Mar 28, 3:00 PM)29.71 "Hg (Mar 14, 6:00 PM)
Average75 °F55%29.84 "Hg
* Reported Mar 14 6:00 PM — Mar 29 6:00 PM, Banjul, Weather by CustomWeather, © 2015

Note: Actual official high and low records may vary slightly from our data, if they occured in-between our weather recording intervals... More about our weather records

Advertising

Banjul weather history for previous 24 hours

 ConditionsComfort  
Time TempWeatherWind HumidityBarometerVisibility
6:00 PM
Sun, Mar 29
100 °FSunny.12 mphN/AN/A6 mi
5:00 PM100 °FSunny.13 mphN/AN/A6 mi
4:00 PM102 °FSunny.17 mph12%29.80 "Hg6 mi
3:00 PM102 °FSunny.17 mphN/AN/A6 mi
2:00 PM100 °FSunny.16 mph10%29.83 "Hg6 mi
1:00 PM99 °FSunny.25 mph11%29.86 "Hg10 mi
9:00 AM81 °FSunny.16 mph21%29.89 "Hg10 mi
8:00 AM75 °FSunny.9 mph36%29.89 "Hg10 mi
7:00 AM72 °FClear.10 mph47%29.86 "Hg10 mi
6:00 AM72 °FClear.9 mph50%29.86 "Hg10 mi
5:00 AM73 °FClear.9 mph44%29.86 "Hg10 mi
4:00 AM73 °FClear.10 mph47%29.86 "Hg10 mi
3:00 AM72 °FClear.No wind61%29.86 "Hg10 mi
2:00 AM72 °FClear.No wind61%29.86 "Hg10 mi
1:00 AM73 °FClear.2 mph57%29.89 "Hg10 mi
12:00 AM75 °FClear.2 mph54%29.89 "Hg10 mi
11:00 PM
Sat, Mar 28
75 °FClear.2 mph54%29.89 "Hg10 mi
10:00 PM75 °FClear.2 mph50%29.86 "Hg10 mi
9:00 PM77 °FClear.2 mph51%29.86 "Hg10 mi
8:00 PM79 °FClear.7 mph45%29.86 "Hg10 mi
Weather by CustomWeather, © 2015

See weather overviewHow to use our weather pages